Location: Plateau_FTFHS
(35.6000°N, 81.3500°W)
Time: 16:45:57
(UTC-05:00)

Daily predictions for brighter satellites

Satellite Brightness Start Highest point End
(mag) Time Altitude Azimuth Time Altitude Azimuth Time Altitude Azimuth
Meteor 1-11 Rocket 4.3 17:38:52 10° NNW 17:44:19 61° W 17:49:44 10° S
ISS -2.4 17:42:18 10° WSW 17:45:26 42° NW 17:48:36 10° NE
Cosmos 1633 3.8 17:46:23 10° NNW 17:49:49 45° W 17:53:14 10° SSW
MSX 4.1 17:46:06 10° SE 17:51:32 45° ENE 17:56:58 10° N
Cosmos 1461 4.0 17:48:45 10° NW 17:52:33 47° WSW 17:56:22 10° S
Cosmos 1812 3.3 17:51:18 10° SSE 17:54:52 37° E 17:58:26 10° NNE
Cosmos 1346 Rocket 4.4 17:52:40 10° SE 17:55:07 16° E 17:57:07 12° NE
SL-27 R/B 3.3 17:52:54 10° N 17:56:12 31° ENE 17:59:27 10° SE
SJ-12 3.9 17:52:50 10° SSE 17:56:55 87° ENE 18:01:02 10° N
CZ-4 R/B 1.8 17:55:11 10° S 17:59:22 72° WSW 18:03:32 10° NNW
Tiangong 1 3.1 17:58:51 10° S 18:00:46 16° SE 18:02:26 11° ESE
Cosmos 1844 Rocket 2.9 17:57:40 10° SSW 18:03:13 75° WNW 18:08:51 10° NNE
COSMO-SKYMED 1 3.1 17:59:28 10° NNE 18:03:32 38° E 18:07:34 10° SSE
Cosmos 1975 Rocket 4.0 18:00:21 10° SSW 18:04:32 50° W 18:08:45 10° N
Cosmos 1544 Rocket 3.7 18:00:12 10° N 18:04:36 56° E 18:08:58 10° SSE
Cosmos 158 Rocket 4.0 17:59:35 10° NNW 18:04:58 88° ENE 18:10:12 10° SSE
GEOS 3 Rocket 4.3 18:01:23 10° ESE 18:05:49 31° NE 18:10:15 10° NNW
CZ-2C R/B 2.5 18:01:06 10° SSE 18:05:59 85° WSW 18:11:04 10° NNW
Cosmos 1238 Rocket 1.9 18:06:59 10° S 18:09:59 70° E 18:12:56 10° N
MONITOR-E 4.4 18:07:36 10° SSE 18:10:40 47° ENE 18:13:45 10° N
Cosmos 1844 3.7 18:07:54 10° SSW 18:13:28 84° WNW 18:19:03 10° NNE
Meteor 1-12 Rocket 4.5 18:08:01 10° N 18:13:37 50° ENE 18:19:18 10° SSE
CZ-3A R/B 4.3 18:10:33 10° W 18:15:24 38° N 18:35:18 11° NE
OPS 8737 4.4 18:13:01 10° SW 18:16:31 77° WNW 18:18:56 16° NNE
Cosmos 1975 3.4 18:14:36 10° NNE 18:18:23 36° E 18:22:06 10° SSE
Cosmos 1536 Rocket 3.5 18:16:36 10° S 18:21:00 69° E 18:25:27 10° NNE
CORIOLIS 4.4 18:15:40 10° S 18:21:04 72° WSW 18:26:29 10° NNW
COSMOS 2441 4.3 18:16:47 10° SSE 18:21:36 72° ENE 18:26:28 10° N
SPOT 3 Rocket 4.4 18:19:31 10° S 18:24:36 54° W 18:29:41 10° NNW
SMAP 4.1 18:22:01 10° S 18:26:31 49° W 18:31:02 10° NNW
YAOGAN 1 3.6 18:23:48 10° S 18:27:59 48° W 18:32:11 10° NNW
SL-24 DEB 4.2 18:24:12 10° N 18:28:58 82° E 18:33:40 10° S
Cosmos 2278 Rocket 2.1 18:25:33 10° SSW 18:31:12 82° ESE 18:36:35 11° NNE
COSMOS 2406 4.3 18:30:29 10° NNW 18:35:57 48° WSW 18:41:25 10° S
IDEFIX/ARIANE 42P 4.0 18:36:08 10° SSW 18:40:59 39° W 18:45:51 10° NNW
Meteor 1-13 Rocket 4.4 18:35:58 10° SSE 18:41:21 50° E 18:46:05 14° NNE
Cosmos 1484 Rocket 2.9 18:41:16 10° S 18:45:02 71° W 18:48:47 10° NNW
Okean 1-7 Rocket 3.9 18:41:38 10° SSE 18:45:57 44° E 18:46:43 40° ENE
Cosmos 2366 rocket 4.4 18:40:22 10° NNW 18:46:41 68° W 18:52:54 10° S
Cosmos 921 Rocket 3.6 18:45:11 10° SSE 18:48:30 36° ESE 18:48:30 36° ESE
CZ-3B DEB 3.2 18:45:27 10° W 18:49:10 40° NNW 18:55:17 17° NE
OTV 4 1.0 18:46:30 10° W 18:49:26 51° SSW 18:49:39 49° S
SKYMED 2 4.2 18:47:22 10° N 18:51:37 55° WNW 18:55:51 10° SSW
Cosmos 1455 Rocket 4.1 18:50:02 10° NNW 18:54:15 47° W 18:58:29 10° SSW
Timation 2 Rocket 4.5 18:51:27 10° N 18:57:53 42° ENE 18:59:43 35° E
Cosmos 2082 Rocket 3.2 18:54:26 10° N 18:57:45 27° NNE 18:57:45 27° NNE
Cosmos 1241 Rocket 4.5 18:55:29 10° NNW 19:02:05 66° ENE 19:07:27 16° SE
NOSS 3-3 (A) 4.4 18:59:17 10° SW 19:05:21 60° NW 19:09:41 22° NNE
NOSS 3-3 (C) 4.4 18:59:23 10° SW 19:05:26 61° NW 19:09:45 22° NNE
Cosmos 1833 Rocket 4.2 19:00:32 10° N 19:02:46 21° NNE 19:02:46 21° NNE
Delta 2 Rocket 3.8 19:01:43 10° SW 19:05:37 47° SSE 19:05:40 47° SSE
SL-8 R/B 4.3 19:03:26 10° WSW 19:08:01 46° NNW 19:09:02 40° N
Cosmos 1500 4.0 19:09:48 10° NNW 19:13:31 51° W 19:17:14 10° S
Cosmos 2239 Rocket 4.4 19:07:42 10° N 19:13:52 62° E 19:19:56 10° SSE
NOAA 12 4.0 19:08:51 10° SSE 19:14:08 88° WSW 19:19:27 10° NNW
METEOR-M 3.9 19:09:36 10° SSE 19:14:55 79° ENE 19:20:16 10° N
Hubble Space Telescope 3.7 19:15:42 10° SSW 19:15:56 10° SSW 19:16:10 10° SSW
Meteor 1-28 Rocket 4.3 19:15:04 30° NNW 19:16:24 43° WNW 19:20:00 10° SSW
ATLAS 2AS CENTAUR R/B 3.3 19:09:29 10° NW 19:17:23 66° WSW 19:24:39 10° SSE
Meteor 2-4 Rocket 3.8 19:13:30 10° S 19:18:00 54° SE 19:18:00 54° SE
Cosmos 1821 Rocket 3.8 19:16:08 10° N 19:22:14 69° E 19:28:17 10° SSE
Tiangong 1 4.3 19:33:42 10° WSW 19:34:09 13° WSW 19:34:09 13° WSW
ATLAS 3B CENTAUR R/B 3.3 19:46:43 10° W 19:59:50 49° S 20:00:11 49° S
FALCON 9 R/B 3.4 20:14:34 10° W 20:26:28 57° W 20:26:28 57° W
